Regional Weather Roundup
Issued by NWS

Home | Current Version | Previous Version | Text Only | Print | Product List | Glossary Off
Versions: 1 2 3 4 5 6 7 8 9 10 11 12 13 14 15 16 17 18 19 20 21 22 23 24 25 26 27 28 29 30 31 32 33 34 35 36 37 38 39 40 41 42 43 44 45 46 47 48 49 50

000
ASUS43 KMPX 290901
RWRMN
WEATHER ROUNDUP FOR MINNESOTA
NATIONAL WEATHER SERVICE TWIN CITIES/CHANHASSEN MN
400 AM CDT THU SEP 29 2016


NOTE: "FAIR" INDICATES FEW OR NO CLOUDS BELOW 12,000 FEET WITH NO
SIGNIFICANT WEATHER AND/OR OBSTRUCTIONS TO VISIBILITY. N/A MEANS
CURRENT SKY AND/OR WEATHER CONDITIONS ARE NOT AVAILABLE.

MNZ060>063-068>070-291000-
   Twin Cities Metro

CITY           SKY/WX    TMP DP  RH WIND       PRES   REMARKS
TWIN CITIES    CLEAR     50  47  89 N7        30.41R
ST PAUL        CLEAR     48  47  96 NW6       30.42R
CRYSTAL        CLEAR     48  44  86 N3        30.40R
BLAINE         CLEAR     46  46 100 N5        30.41R
LAKEVILLE      CLEAR     46  46 100 CALM      30.39S
EDEN PRAIRIE   CLEAR     50  47  89 N7        30.39R
LAKEVILLE      CLEAR     46  46 100 CALM      30.39S
SOUTH ST PAUL  CLEAR     49  47  93 N3        30.40R
LAKE ELMO      FAIR      46  46 100 N3        30.41R
$$
MNZ001>005-007-008-013>017-022>024-027-028-291000-
   Northwest Minnesota

CITY           SKY/WX    TMP DP  RH WIND       PRES   REMARKS
BEMIDJI        CLOUDY    49  47  95 CALM      30.46R
HALLOCK        PTCLDY    45  43  93 E3        30.45R
ROSEAU         CLOUDY    50  45  81 CALM      30.47R
THIEF RVR FALL CLOUDY    48  46  93 CALM      30.47R
CROOKSTON      CLOUDY    48  46  93 CALM      30.46R
FOSSTON        CLOUDY    43  41  93 E5        30.47R
DETROIT LAKES  CLEAR     45  45 100 CALM      30.46R
MOORHEAD       CLEAR     45  43  93 E5        30.45R
PARK RAPIDS    MOCLDY    49  44  83 CALM      30.44S
MAHNOMEN       FAIR      44  43  97 E3        30.45R
$$
MNZ006-009>011-018-025>026-291000-
   North Central Minnesota

CITY           SKY/WX    TMP DP  RH WIND       PRES   REMARKS
BAUDETTE       CLOUDY    49  48  97 CALM      30.47R
FLAG ISLAND    CLOUDY    55  48  76 SE6       30.46R
INTL FALLS     CLOUDY    52  49  89 CALM      30.47R
WASKISH        CLOUDY    50  48  93 CALM      30.47R
BIG FORK       CLOUDY    52  48  87 CALM      30.47R
LONGVILLE      CLOUDY    50  48  93 CALM      30.45R
GRAND RAPIDS   CLOUDY    52  50  93 CALM      30.47R
ORR            CLOUDY    52  48  87 CALM      30.45R
COOK           CLOUDY    52  50  93 CALM      30.47R
WALKER         CLOUDY    49  47  95 CALM      30.45R
$$
MNZ012-019>021-037-291000-
   Northeast Minnesota

CITY           SKY/WX    TMP DP  RH WIND       PRES   REMARKS
DULUTH         CLOUDY    52  51  97 N3        30.44R
ELY            CLOUDY    52  50  93 CALM      30.45S
HIBBING        CLOUDY    50  49  96 CALM      30.45R
EVELETH        CLOUDY    53  50  89 CALM      30.46S
DULUTH HARBOR  CLOUDY    55  52  88 CALM      30.45R
TWO HARBORS    CLOUDY    55  52  88 N3        30.43R
SILVER BAY     CLOUDY    54  52  94 CALM      30.43R
GRAND MARAIS     N/A     55  47  74 N9        30.44R
G MARAIS ARPRT CLOUDY    46  43  87 N9        30.46S
$$
MNZ029>031-032-039>041-046>048-054>057-064-291000-
   West Central Minnesota

CITY           SKY/WX    TMP DP  RH WIND       PRES   REMARKS
FERGUS FALLS   CLEAR     46  43  87 E6        30.46S
MORRIS         CLOUDY    48  45  87 E6        30.43R
ALEXANDRIA     CLOUDY    47  46  97 CALM      30.45R
ELBOW LAKE     FAIR      49  46  89 SE5       30.44R
WADENA         CLOUDY    50  46  87 CALM      30.44S
GLENWOOD       CLOUDY    52  46  82 CALM      30.44S
BENSON         CLOUDY    39  37  93 NE3       30.44R FOG
ORTONVILLE     CLOUDY    43  39  87 CALM      30.43R
MADISON        CLOUDY    43  43 100 W5        30.43R
WILLMAR        FAIR      45  43  93 NE5       30.44S
$$
MNZ033>034-036-042>043-049>051-058-059-291000-
   Central Minnesota

CITY           SKY/WX    TMP DP  RH WIND       PRES   REMARKS
ST CLOUD       CLEAR     42  42 100 N3        30.43S FOG
SAUK CENTRE    CLOUDY    52  47  85 CALM      30.44S
PAYNESVILLE    CLEAR     42  42 100 CALM      30.44R FOG
AITKIN         CLOUDY    54  48  82 CALM      30.44R
PINE RIVER     CLOUDY    52  52 100 CALM      30.47S
BRAINERD       CLOUDY    52  50  93 CALM      30.45R
STAPLES        CLOUDY    52  48  87 CALM      30.45R
LONG PRAIRIE   CLOUDY    52  46  82 CALM      30.45R
LITTLE FALLS   CLOUDY    52  46  82 CALM      30.44S
LITCHFIELD     CLEAR     48  46  93 CALM        N/A
BUFFALO        CLEAR     48  45  90 N3        30.43R
MAPLE LAKE     CLEAR     48  47  95 N5        30.43S
HUTCHINSON     CLEAR     48  47  97 N3        30.43R
$$
MNZ037-044-045-052-053-291000-
   East Central Minnesota

CITY           SKY/WX    TMP DP  RH WIND       PRES   REMARKS
PRINCETON        N/A     45  43  93 CALM      30.43S
MORA           CLEAR     45  43  93 CALM      30.45S
CAMBRIDGE      CLEAR     46  45  93 CALM      30.41S
MOOSE LAKE     CLOUDY    46  45  93 CALM      30.43R FOG
HINCKLEY       PTSUNNY   46  46 100 CALM      30.44R
CLOQUET        CLOUDY    52  48  87 CALM      30.44S
MCGREGOR       CLOUDY    52  50  93 CALM      30.45R
$$
MNZ071>073-080-081-089-090-097-098-291000-
   Southwest Minnesota

CITY           SKY/WX    TMP DP  RH WIND       PRES   REMARKS
MONTEVIDEO     CLEAR     43  43 100 CALM      30.44S
GRANITE FALLS  CLEAR     43  42  97 CALM      30.44R FOG
CANBY          CLOUDY    40  40  97 CALM      30.44S
MARSHALL       CLOUDY    40  38  93 W6        30.43R
REDWOOD FALLS  CLEAR     50  45  83 NE6       30.41S
OLIVIA         CLEAR     45  41  87 NE3       30.41S
PIPESTONE      CLOUDY    46  45  93 CALM      30.41S
WINDOM         CLEAR     45  45 100 N7        30.41R
WORTHINGTON    CLEAR     44  44 100 N7        30.41S
JACKSON        CLEAR     45  43  93 N3        30.40R
TRACY          CLEAR     44  44  98 CALM      30.42S
$$
MNZ065>067-074>077-082>085-091>093-291000-
   South Central Minnesota

CITY           SKY/WX    TMP DP  RH WIND       PRES   REMARKS
MANKATO        CLEAR     48  47  96 N8        30.40R
ST JAMES       CLEAR     45  45 100 NW3       30.41R
GLENCOE        CLEAR     47  47 100 N5        30.41S
FARIBAULT      CLEAR     46  46 100 CALM      30.39R
WASECA         CLEAR     46  45  93 N6        30.40R
ALBERT LEA     CLEAR     48  48 100 N3        30.37R
$$
MNZ078>079-086>088-094>096-291000-
   Southeast Minnesota

CITY           SKY/WX    TMP DP  RH WIND       PRES   REMARKS
ROCHESTER      CLOUDY    52  51  97 N8        30.37R
RED WING       CLEAR     46  46 100 CALM      30.38R
DODGE CENTER   CLOUDY    48  46  93 N3        30.37S
WINONA         CLEAR     50  48  93 CALM      30.37R
AUSTIN         CLOUDY    52  48  87 NE8       30.36S
PRESTON        MOCLDY    49  47  93 N5        30.36S
$$
ABBREVIATIONS USED IN REMARKS
   TC - TEMPERATURES IN CELSIUS
  WCI - WIND CHILL INDEX
   HX - HEAT INDEX
  VSB - VISIBILITY
$$



USA.gov is the U.S. government's official web portal to all federal, state and local government web resources and services.